This is the latest recevied weather packets stored in our database for station/object K7OWW-2. If no packets are shown the sender has not sent any weather packets the latest 10 day(s).
| Time | Temp. | Humidity | Pressure | Rain* | Wind** | Luminosity | Snow |
|---|---|---|---|---|---|---|---|
| 1787466552 | 10° C | 76% | 1016.3 hPa | 0 mm | - | - | - |
| 1787465952 | 10° C | 75% | 1016.2 hPa | 0 mm | - | - | - |
| 1787465654 | 10.56° C | 75% | 1016.2 hPa | 0 mm | - | - | - |
| 1787465352 | 10.56° C | 74% | 1016.2 hPa | 0 mm | - | - | - |
| 1787464752 | 11.11° C | 74% | 1016.1 hPa | 0 mm | - | - | - |
| 1787464152 | 11.11° C | 73% | 1016.1 hPa | 0 mm | - | - | - |
| 1787463854 | 11.11° C | 72% | 1016.1 hPa | 0 mm | - | - | - |
| 1787463552 | 11.67° C | 71% | 1016.1 hPa | 0 mm | - | - | - |
| 1787462952 | 12.22° C | 70% | 1016.1 hPa | 0 mm | - | - | - |
| 1787462352 | 12.78° C | 69% | 1016.2 hPa | 0 mm | - | - | - |
| 1787462054 | 12.78° C | 69% | 1016.2 hPa | 0 mm | - | - | - |
| 1787461752 | 12.78° C | 69% | 1016.2 hPa | 0 mm | - | - | - |
| 1787461152 | 13.33° C | 68% | 1016.1 hPa | 0 mm | - | - | - |
| 1787460552 | 13.33° C | 65% | 1016.1 hPa | 0 mm | - | - | - |
| 1787459952 | 13.89° C | 64% | 1016.1 hPa | 0 mm | - | - | - |
| 1787459352 | 13.89° C | 63% | 1016.1 hPa | 0 mm | - | - | - |
| 1787458752 | 14.44° C | 63% | 1016.2 hPa | 0 mm | - | - | - |
| 1787458153 | 15° C | 62% | 1016.1 hPa | 0 mm | - | - | - |
| 1787457553 | 15° C | 60% | 1016 hPa | 0 mm | - | - | - |
| 1787456953 | 15.56° C | 59% | 1015.9 hPa | 0 mm | - | - | - |
| 1787456352 | 16.11° C | 58% | 1015.8 hPa | 0 mm | - | - | - |
| 1787455753 | 16.11° C | 56% | 1015.6 hPa | 0 mm | - | - | - |
| 1787455153 | 16.67° C | 53% | 1015.4 hPa | 0 mm | - | - | - |
| 1787454553 | 17.22° C | 50% | 1015.2 hPa | 0 mm | - | - | - |
| 1787453953 | 17.78° C | 48% | 1015 hPa | 0 mm | - | - | - |
* Rain latest hour (hover to see other rain measurements)
** Current wind speed in m/s (hover to see current wind gust speed)